DW8266 Weather Reports


Display with metric or nautical units.
time (UTC)temp
F
wind
direction
speed
MPH
gust
MPH
rain 1hr
in
rain 24hr
in
rain mn
in
humidity
%
barometer
mb
20260906081559 82 178 0.0 2.0 0.00 0.00 0.00 90 1011.8
20260906074559 82 178 0.0 0.0 0.00 0.00 0.00 90 1011.9
20260906073100 83 178 1.0 4.0 0.00 0.00 0.00 90 1011.9
20260906071600 83 176 1.0 3.0 0.00 0.00 0.00 90 1012.3
20260906070058 83 176 0.0 4.0 0.00 0.00 0.00 90 1012.4
20260906064559 83 173 1.0 3.0 0.00 0.00 0.00 90 1012.6
20260906063100 83 173 0.0 4.0 0.00 0.00 0.00 90 1012.6
20260906061615 83 163 1.0 3.0 0.00 0.00 0.00 90 1012.5
20260906060100 83 169 0.0 3.0 0.00 0.00 0.00 89 1012.4
20260906054557 83 169 0.0 4.0 0.00 0.00 0.00 89 1012.3
20260906053055 83 180 1.0 4.0 0.00 0.00 0.00 89 1012.4
20260906051605 84 184 0.0 4.0 0.00 0.00 0.00 89 1012.6
20260906050059 84 187 1.0 4.0 0.00 0.00 0.00 88 1012.5
20260906044559 84 205 0.0 3.0 0.00 0.00 0.00 88 1012.6
20260906043106 84 171 1.0 3.0 0.00 0.00 0.00 88 1012.7
20260906041559 84 184 0.0 3.0 0.00 0.00 0.00 87 1012.7
20260906040059 84 157 0.0 2.0 0.00 0.00 0.00 87 1012.8
20260906034605 84 170 0.0 1.0 0.00 0.00 0.00 87 1012.7
20260906033100 85 170 0.0 0.0 0.00 0.00 0.00 86 1012.8
20260906031600 85 170 0.0 3.0 0.00 0.00 0.00 86 1012.6
20260906030058 85 173 0.0 3.0 0.00 0.00 0.00 86 1012.4
20260906024558 85 173 0.0 1.0 0.00 0.00 0.00 85 1012.4
20260906023107 86 55 0.0 3.0 0.00 0.00 0.00 84 1011.9
20260906021559 86 94 0.0 2.0 0.00 0.00 0.00 83 1011.7
20260906020101 86 80 0.0 2.0 0.00 0.00 0.00 83 1011.3
20260906014605 87 82 0.0 4.0 0.00 0.00 0.00 83 1011.3
20260906013058 87 34 0.0 2.0 0.00 0.00 0.00 82 1011.3
20260906011605 88 32 0.0 3.0 0.00 0.00 0.00 81 1011.2
20260906010058 88 157 0.0 1.0 0.00 0.00 0.00 78 1011.1
20260906004557 88 136 0.0 0.0 0.00 0.00 0.00 78 1011.0
20260906003058 88 136 0.0 2.0 0.00 0.00 0.00 77 1011.1
20260906001558 89 137 0.0 3.0 0.00 0.00 0.00 76 1011.3
20260906000057 89 169 0.0 2.0 0.00 0.00 0.00 77 1011.4
20260905233109 90 101 0.0 2.0 0.00 0.00 0.00 76 1011.6
20260905231557 90 62 0.0 2.0 0.00 0.00 0.00 78 1011.4
20260905230056 89 49 0.0 5.0 0.00 0.00 0.00 77 1011.5
20260905224601 88 71 0.0 1.0 0.00 0.00 0.00 78 1011.2
20260905223057 88 71 0.0 1.0 0.00 0.00 0.00 80 1011.1
20260905221602 87 71 0.0 1.0 0.00 0.00 0.00 81 1011.2
20260905220056 87 71 0.0 1.0 0.00 0.00 0.00 80 1011.2
20260905214558 87 71 0.0 3.0 0.00 0.00 0.00 79 1011.3
20260905213100 89 40 1.0 11.0 0.00 0.00 0.00 76 1011.7
20260905211608 90 62 1.0 6.0 0.00 0.00 0.00 72 1011.9
20260905210111 92 142 2.0 9.0 0.00 0.00 0.00 70 1011.9
20260905204559 94 161 2.0 10.0 0.00 0.00 0.00 69 1011.3
20260905203100 95 177 5.0 9.0 0.00 0.00 0.00 68 1011.3
20260905201601 94 173 4.0 10.0 0.00 0.00 0.00 68 1011.5
20260905200002 95 183 6.0 12.0 0.00 0.00 0.00 67 1011.7
20260905194600 96 172 3.0 7.0 0.00 0.00 0.00 59 1011.9
20260905193059 95 42 3.0 8.0 0.00 0.00 0.00 63 1012.1
20260905191559 95 163 0.0 4.0 0.00 0.00 0.00 62 1012.3
20260905184559 96 196 2.0 4.0 0.00 0.00 0.00 60 1012.5
20260905183117 96 71 1.0 3.0 0.00 0.00 0.00 64 1012.7
20260905181600 96 61 1.0 4.0 0.00 0.00 0.00 61 1013.0
20260905180002 95 84 0.0 4.0 0.00 0.00 0.00 67 1013.5
20260905174600 93 64 1.0 4.0 0.00 0.00 0.00 69 1013.8
20260905173059 92 218 1.0 4.0 0.00 0.00 0.00 68 1014.0
20260905170101 92 264 2.0 6.0 0.00 0.00 0.00 70 1014.2
20260905170001 92 264 2.0 6.0 0.00 0.00 0.00 72 1014.2
20260905164559 91 215 2.0 4.0 0.00 0.00 0.00 72 1014.4
20260905163106 91 140 1.0 4.0 0.00 0.00 0.00 75 1014.5
20260905161603 89 214 1.0 3.0 0.00 0.00 0.00 74 1014.5
20260905160100 89 214 1.0 4.0 0.00 0.00 0.00 77 1014.4
20260905160004 89 214 2.0 4.0 0.00 0.00 0.00 78 1014.4
20260905154559 89 219 2.0 5.0 0.00 0.00 0.00 81 1014.3
20260905153110 88 216 2.0 5.0 0.00 0.00 0.00 83 1014.5
20260905151603 87 244 0.0 3.0 0.00 0.00 0.00 85 1014.5
20260905150059 86 249 0.0 3.0 0.00 0.00 0.00 86 1014.6
20260905150002 86 249 0.0 3.0 0.00 0.00 0.00 86 1014.6
20260905144559 86 150 0.0 2.0 0.00 0.00 0.00 86 1014.5
20260905144515 86 150 0.0 2.0 0.00 0.00 0.00 86 1014.5
20260905143100 86 150 0.0 2.0 0.00 0.00 0.00 89 1014.4
20260905143003 86 150 0.0 2.0 0.00 0.00 0.00 88 1014.5
20260905141612 85 150 0.0 0.0 0.00 0.00 0.00 89 1014.5
20260905140107 85 150 0.0 0.0 0.00 0.00 0.00 89 1014.4
20260905134559 84 150 0.0 0.0 0.00 0.00 0.00 91 1014.2
20260905133058 83 150 0.0 1.0 0.00 0.00 0.00 92 1014.2
20260905131616 81 150 0.0 2.0 0.00 0.00 0.00 93 1014.2
20260905130058 80 168 0.0 0.0 0.00 0.00 0.00 93 1013.9
20260905124558 79 168 0.0 0.0 0.00 0.00 0.00 93 1013.7
20260905123101 79 168 0.0 0.0 0.00 0.00 0.00 93 1013.5
20260905121600 79 168 0.0 0.0 0.00 0.00 0.00 93 1013.6
20260905120100 79 168 0.0 0.0 0.00 0.00 0.00 93 1013.5
20260905113058 79 168 0.0 0.0 0.00 0.00 0.00 93 1012.9
20260905111559 80 168 0.0 0.0 0.00 0.00 0.00 93 1012.8
20260905110100 80 168 0.0 0.0 0.00 0.00 0.00 93 1012.7
20260905104558 80 168 0.0 0.0 0.00 0.00 0.00 93 1012.7
20260905103058 80 168 0.0 0.0 0.00 0.00 0.00 93 1012.6
20260905101559 80 168 0.0 0.0 0.00 0.00 0.00 93 1012.7
20260905100125 80 168 0.0 0.0 0.00 0.00 0.00 93 1012.6
20260905094559 80 168 0.0 0.0 0.00 0.00 0.00 92 1012.4
20260905093059 80 168 0.0 0.0 0.00 0.00 0.00 92 1012.7
20260905091559 80 168 0.0 0.0 0.00 0.00 0.00 92 1012.8
20260905090134 80 168 0.0 0.0 0.00 0.00 0.00 92 1012.7
20260905090001 80 168 0.0 0.0 0.00 0.00 0.00 92 1012.7
20260905084558 81 168 0.0 0.0 0.00 0.00 0.00 92 1012.5
20260905083100 81 168 0.0 0.0 0.00 0.00 0.00 92 1012.4